{"data":{"norad_id":52638,"intl_designator":"2022-052AS","name":"STARLINK-3941","alt_names":[],"object_type":"PAYLOAD","status":"ACTIVE","operator":null,"country":"US","launch_date":"2022-05-14","launch_site_code":"AFETR","launch_vehicle":null,"mission":null,"orbit_class":"UNKNOWN","rcs_meters":null,"size_class":null,"mass_kg":null,"dimensions":null,"purposes":["comms"],"wikipedia_slug":null,"has_3d_model":false,"image_url":null,"decayed_at":null,"tle_current":{"epoch":"2026-09-20T03:27:11.007360Z","epoch_age_seconds":97246,"freshness":"FRESH","line1":"1 52638U 22052AS  26263.14387740 -.00000517  00000+0 -41773-5 0  9999","line2":"2 52638  53.1604 101.0976 0001412  78.9474 281.1688 15.34380796241362","mean_motion":15.34380796,"eccentricity":0.0001412,"inclination_deg":53.1604,"raan_deg":101.0976,"arg_perigee_deg":78.9474,"mean_anomaly_deg":281.1688,"bstar":-4.1773e-6,"rev_number":24136,"period_min":93.848932660912,"perigee_km":461.79438443602,"apogee_km":463.72625383895,"semimajor_km":6840.8973191375,"source":"CELESTRAK","updated_at":"2026-09-20T09:00:40.097342Z"}}}